Vorticity
5 3 1 0 0 1 1 1 3 5 7 9 10 10 9 9 10 11 12 12 11 10 10 10 9 8 6 6 8 10 12 12 12 10 7 4 3 2 2 3 3 3 3 3 4 4 5 5 6 6 6 7 7 6 6 6 6 6 6 6 6 5 5 5 5 5 5 6 6 6 6 7 7 7 7 7 7 7 7 7 7 7 7 6 6 6 6 6 6 5 5 5 5 5 4 4 4 4 4 4 4 4 4
5 3 1 1 1 1 0 1 2 4 7 9 10 10 9 10 11 12 12 11 11 10 9 9 9 8 7 8 10 12 13 13 11 9 5 3 2 2 2 3 3 3 3 3 4 4 5 6 6 6 6 6 6 6 5 5 5 6 6 6 6 5 5 5 5 5 5 6 6 6 6 7 7 7 7 7 6 6 6 7 7 7 7 7 6 6 6 6 6 5 5 5 5 5 4 4 4 4 4 4 4 4 4
5 4 2 1 1 1 0 1 2 4 8 10 10 10 10 11 12 12 12 11 10 9 9 9 9 9 8 10 11 13 14 13 10 7 4 2 1 1 2 3 3 3 3 4 4 5 5 6 6 6 6 6 6 5 5 5 5 5 6 6 5 5 5 5 5 5 6 6 6 7 7 7 7 7 7 7 6 6 6 6 6 7 7 7 7 6 6 6 6 5 5 5 5 5 4 4 4 4 4 4 4 4 5
5 4 3 2 1 1 0 1 2 4 8 11 12 11 11 11 12 12 11 10 9 9 9 9 9 9 9 11 12 13 13 12 10 6 3 2 1 2 2 3 3 3 4 4 4 5 5 5 6 6 6 6 5 5 5 5 5 5 5 5 5 5 5 5 5 5 6 6 6 7 7 7 7 7 7 7 6 6 6 6 6 6 7 7 7 6 6 6 6 5 5 5 5 5 4 4 4 4 4 4 4 5 5
4 4 4 3 2 1 1 1 2 4 7 13 13 11 10 10 11 11 10 9 8 8 8 7 7 8 9 11 12 13 13 11 8 5 2 2 2 2 3 3 3 4 4 4 4 5 5 5 5 6 7 6 6 5 5 5 5 5 5 5 5 5 5 5 5 5 6 6 6 7 7 7 7 7 6 6 6 6 6 6 6 6 7 7 7 7 6 6 6 5 5 5 5 5 5 4 4 4 4 4 5 5 5
4 5 4 3 3 2 1 1 2 3 6 13 13 10 8 8 8 8 9 8 8 8 7 5 6 7 8 10 12 13 12 10 7 5 3 2 2 2 3 3 3 4 4 4 4 5 5 5 5 6 7 6 6 6 5 5 5 5 5 5 5 5 5 5 5 5 6 6 6 7 7 7 7 7 6 6 6 6 6 6 6 6 7 7 7 7 6 6 6 6 5 5 5 5 5 4 4 4 4 4 4 4 4
3 4 5 4 3 2 1 2 2 2 5 10 11 10 10 9 8 6 6 8 9 9 8 7 6 5 5 9 11 12 11 9 7 5 3 2 2 2 3 3 3 4 4 4 5 5 5 5 5 6 7 6 6 5 5 5 5 5 5 5 5 5 5 5 5 5 6 6 6 7 7 7 7 7 6 6 6 6 6 6 6 6 6 7 7 7 6 6 6 6 5 5 5 5 5 4 4 4 4 4 4 4 4
2 4 5 4 4 3 2 2 2 3 5 9 10 10 10 9 9 9 7 8 9 9 11 9 5 1 3 8 11 12 11 9 7 5 4 3 2 2 3 3 3 4 4 4 5 5 5 5 6 6 6 6 5 5 5 5 5 5 5 5 5 5 5 5 5 5 6 6 6 7 7 7 7 7 7 6 6 6 6 6 6 6 6 6 7 7 6 6 6 6 5 5 5 5 4 4 4 4 4 4 4 4 4
2 3 4 4 4 4 3 2 2 3 5 9 10 10 9 9 10 10 7 8 8 7 8 8 5 2 3 8 11 12 11 9 7 5 4 3 3 2 3 3 3 3 4 4 5 5 5 5 6 6 6 6 5 5 4 4 5 5 5 5 4 5 5 5 5 5 6 6 6 7 7 7 7 7 7 7 6 6 6 6 6 6 6 6 6 6 6 6 6 5 5 5 5 4 4 4 4 4 4 4 4 4 4
1 3 4 4 5 5 4 3 1 2 5 9 11 10 9 10 9 7 4 8 8 7 9 11 8 4 7 12 14 13 9 8 7 5 4 3 3 3 3 3 3 3 4 4 5 5 5 6 6 6 6 6 5 4 4 4 4 5 4 4 4 5 5 5 5 5 6 6 6 7 7 7 7 7 7 7 7 6 6 6 6 6 6 6 6 6 6 6 6 5 5 5 5 4 4 4 4 4 4 3 3 3 3
2 2 3 3 4 5 5 4 3 2 5 9 10 10 9 9 7 4 3 9 9 8 13 15 11 6 6 13 16 14 8 6 5 5 4 3 3 3 2 3 3 3 4 4 5 5 5 6 6 6 6 6 5 5 4 4 4 4 4 4 4 5 5 5 5 6 6 6 6 7 7 7 7 7 7 7 7 7 6 6 6 6 6 6 6 6 6 6 6 6 5 5 5 4 4 4 4 4 4 3 3 3 3
2 3 2 3 4 5 7 8 4 2 4 9 11 10 10 8 6 4 6 11 10 9 13 13 10 5 -1 7 14 16 9 6 4 4 4 4 3 3 3 3 3 3 4 4 4 5 5 6 6 6 6 6 5 5 5 5 5 4 4 4 5 5 5 5 5 6 6 6 6 7 7 7 7 7 7 7 7 7 7 7 6 6 6 6 6 6 6 6 6 6 6 5 5 5 4 4 4 4 4 3 3 3 3
3 3 3 2 3 5 8 9 4 1 8 13 12 11 10 8 6 6 8 11 13 11 7 8 6 0 -9 1 12 18 11 6 4 4 4 4 4 3 3 3 3 4 4 4 4 5 5 5 6 6 6 5 5 5 5 5 5 5 5 5 5 5 5 5 6 6 6 6 6 7 7 7 7 7 7 7 7 7 7 7 7 7 6 7 7 7 7 6 6 6 6 6 5 5 5 5 4 4 4 4 4 3 3
3 4 4 2 3 4 6 8 5 5 13 12 9 8 11 10 8 8 9 12 12 9 2 6 4 -2 -12 -2 12 19 12 7 5 4 4 4 4 4 3 3 4 4 4 4 4 4 4 5 5 6 6 5 5 5 5 5 5 5 5 5 5 5 5 5 6 6 6 6 6 6 6 7 7 7 7 8 8 7 7 7 7 7 7 7 7 7 7 7 7 6 6 6 6 6 5 5 5 4 4 4 4 4 4
2 4 5 3 2 2 3 7 7 7 11 5 3 5 10 10 9 9 10 12 12 10 11 5 3 -1 -13 -4 10 18 13 9 6 5 4 4 4 4 4 4 4 4 4 4 4 4 4 5 5 5 5 5 5 5 5 5 6 5 5 5 5 5 6 6 6 6 6 6 6 6 6 6 7 7 7 7 8 8 8 7 7 7 7 7 7 7 7 7 7 7 6 6 6 6 6 6 5 5 5 5 4 4 4
2 4 5 5 3 2 1 3 6 8 7 2 2 5 6 11 11 10 9 12 12 11 15 4 3 0 -19 -8 6 16 11 9 6 5 4 4 4 4 4 3 4 4 4 4 4 4 4 4 5 5 5 5 5 5 5 6 6 6 5 5 5 5 6 6 6 6 6 6 6 6 6 6 6 7 7 7 8 8 8 7 7 7 7 7 7 7 7 7 7 7 7 6 6 6 6 6 6 6 5 5 5 5 5
3 5 6 6 5 3 1 1 3 6 7 6 7 8 8 10 10 9 9 12 12 12 15 10 6 -3 -22 -7 6 13 7 7 6 4 3 4 4 4 4 3 3 3 4 4 4 4 4 4 4 5 5 5 5 5 5 6 6 5 5 5 5 5 6 6 6 6 6 6 6 6 6 6 6 6 7 7 8 8 8 8 7 7 7 7 7 7 7 7 7 7 7 7 7 6 6 6 6 6 6 6 5 5 5
5 7 8 7 6 5 3 2 2 4 6 7 8 8 9 7 8 9 11 13 13 13 12 13 3 -9 -16 -3 7 11 5 5 4 4 3 3 4 4 4 3 3 3 4 4 4 4 4 4 4 4 4 4 5 5 5 5 5 5 5 6 6 6 5 6 6 6 6 6 6 6 6 6 6 6 6 7 7 8 8 8 8 8 7 7 7 7 7 8 8 8 7 7 7 7 7 6 6 6 6 6 6 6 5
7 9 10 9 8 6 4 3 2 3 5 7 8 9 10 8 8 10 13 12 12 13 11 14 4 -7 -10 -1 6 9 5 3 3 3 3 3 3 4 4 3 3 3 4 4 4 4 4 4 4 5 5 5 5 5 5 5 5 6 6 6 6 6 5 5 5 5 6 6 6 6 5 5 5 5 6 6 7 7 8 8 8 7 7 7 7 7 7 7 7 7 7 7 7 7 7 7 6 6 6 6 6 6 6
9 10 11 10 10 8 6 4 3 3 5 7 9 10 10 9 9 10 10 8 10 12 12 13 6 -2 -6 1 4 5 3 2 3 3 4 3 4 4 4 3 3 3 4 4 4 4 4 4 4 5 5 5 5 5 5 5 5 6 6 6 6 5 5 5 5 5 6 6 6 5 5 5 5 5 6 6 6 6 7 7 7 7 7 7 7 7 7 7 7 7 7 7 7 7 7 7 7 6 6 6 6 6 6
9 10 11 9 8 8 8 5 4 4 5 7 9 11 12 9 10 10 9 8 10 11 11 10 7 3 1 5 7 6 3 4 5 5 5 4 4 4 4 3 2 3 4 4 4 4 4 4 4 5 5 5 5 5 5 5 6 6 6 6 5 5 5 5 5 5 6 6 5 5 5 5 5 5 6 6 6 6 6 6 6 6 6 6 6 6 6 6 6 6 6 6 6 6 6 6 6 6 6 6 6 6 6
9 10 10 5 3 4 8 6 4 4 5 7 9 12 14 11 9 7 6 11 11 10 10 9 8 7 8 8 8 7 5 6 7 7 6 5 5 4 3 2 2 3 4 4 4 4 4 4 5 5 5 5 5 5 5 6 6 6 6 5 5 5 5 5 5 5 5 5 5 5 5 5 5 6 6 6 6 5 5 5 5 5 5 5 5 5 5 5 5 6 6 6 6 6 6 6 6 6 6 6 6 6 6
8 9 8 0 -2 1 8 7 5 4 4 7 9 11 13 13 9 4 -2 4 7 8 8 9 10 10 11 9 8 7 6 7 8 9 8 6 5 4 3 2 2 3 4 4 4 4 4 4 5 5 5 5 5 5 5 6 6 6 5 5 5 5 5 5 5 5 5 5 5 5 5 5 5 5 5 6 5 5 5 4 4 4 5 5 5 5 5 5 5 5 5 5 5 5 5 5 5 5 6 6 6 6 6
7 8 7 -1 -3 1 10 10 7 5 4 6 8 10 12 14 12 7 -4 1 4 7 7 10 11 11 10 9 8 8 7 7 8 9 9 7 5 4 3 3 3 3 4 4 4 4 4 4 5 5 5 5 5 5 5 6 6 6 5 5 5 5 5 5 5 5 5 5 5 5 5 5 5 5 5 5 5 5 5 5 4 4 4 4 4 4 5 5 5 5 5 5 5 5 5 5 5 5 5 6 6 6 6
6 7 7 -0 -3 -0 10 12 9 6 3 5 8 10 11 13 13 10 0 -2 1 6 7 11 11 10 8 7 7 7 7 8 9 10 10 8 6 4 3 3 3 4 4 5 5 4 4 4 5 5 5 5 4 5 5 5 6 5 5 5 5 5 5 5 5 5 5 5 5 5 5 5 4 5 5 5 5 5 5 5 5 4 4 4 4 4 5 5 5 5 5 5 5 5 5 5 5 6 6 6 6 6 6
5 7 6 1 -3 -1 7 12 10 6 4 5 7 9 10 11 13 12 7 -5 -5 1 7 10 10 9 7 7 7 7 7 8 10 11 12 10 8 6 4 4 4 4 5 5 5 5 5 5 5 5 5 4 4 4 5 5 5 5 5 5 5 5 5 5 5 5 5 5 4 4 4 4 4 4 4 5 5 5 5 5 5 4 4 4 5 5 5 5 5 5 5 5 5 5 6 6 6 6 6 6 6 6 6
6 6 6 2 -2 -3 3 7 7 6 4 4 7 9 10 10 11 12 11 3 1 3 7 8 7 7 7 7 7 8 8 9 11 13 14 12 10 8 6 5 4 5 5 5 5 5 5 5 5 5 5 4 4 4 5 5 5 5 5 5 5 5 5 5 5 5 4 4 4 4 4 4 4 4 4 4 4 5 4 4 4 4 4 4 5 5 5 5 5 5 5 5 5 5 6 6 5 5 5 5 5 5 5
7 7 6 1 -2 -3 1 -1 1 3 3 4 7 10 10 10 10 10 10 9 7 7 8 7 6 6 7 8 9 9 10 10 12 13 15 14 12 9 7 5 4 5 5 5 6 5 5 5 5 5 5 4 4 4 4 5 5 5 5 5 5 5 5 5 5 5 4 4 4 4 4 4 4 4 4 4 4 4 4 4 4 4 4 4 4 5 5 5 5 5 5 5 5 5 5 5 5 5 4 5 5 5 5
9 8 5 0 -1 -0 1 -2 -0 2 2 4 7 10 11 10 10 9 9 9 9 8 7 7 6 6 7 9 10 10 10 11 12 14 16 15 13 10 7 5 4 4 5 5 6 6 5 5 5 5 4 5 4 4 4 5 5 5 5 5 5 5 5 5 5 5 4 4 4 4 4 4 4 4 4 4 4 4 4 4 4 4 4 4 4 5 5 5 5 5 5 5 5 5 5 5 5 4 4 4 5 5 5
11 9 5 -0 -0 1 2 3 3 4 3 6 8 10 12 11 10 10 9 9 9 8 8 7 7 7 8 10 10 11 11 11 12 14 16 15 13 10 7 5 4 4 5 5 5 5 5 5 5 5 5 5 4 4 4 4 5 5 5 5 5 5 5 5 5 4 4 4 4 4 4 4 4 4 4 4 4 4 4 4 4 4 4 4 4 5 5 5 5 5 5 5 4 4 4 4 4 5 5 5 5 6 6
12 9 4 0 1 4 6 6 8 9 8 8 9 10 11 12 11 10 9 9 9 9 8 7 7 8 10 10 11 10 10 11 12 13 15 14 12 9 6 5 4 4 5 5 5 5 5 5 5 5 5 5 4 4 4 4 4 5 5 5 5 5 5 5 5 4 4 4 4 4 4 4 4 3 4 4 4 4 4 4 4 4 4 4 4 4 5 5 5 5 5 4 4 4 4 4 5 5 5 5 6 6 7
12 8 2 0 2 6 11 11 13 16 14 10 9 10 11 12 12 11 9 9 9 9 8 7 6 7 8 9 9 10 10 10 11 12 13 13 11 9 6 5 4 4 5 5 6 6 5 5 5 5 5 5 5 4 4 4 4 5 5 5 5 5 5 5 5 4 4 4 4 4 4 4 3 3 3 3 4 4 4 4 4 4 4 4 4 4 4 4 4 4 4 4 4 4 5 5 5 6 6 6 7 7 7
11 6 0 -0 1 6 12 17 19 18 15 10 9 10 11 12 12 10 9 9 9 9 8 5 3 2 3 5 7 9 10 9 9 10 12 11 10 9 6 5 5 5 5 6 6 6 6 5 5 6 5 5 5 4 4 4 4 5 5 5 5 5 5 5 4 4 4 4 4 4 3 3 3 3 3 3 3 4 4 4 4 4 4 4 4 4 4 4 4 4 4 4 4 5 5 5 6 6 7 7 7 7 8
10 4 -1 -1 2 7 15 17 15 12 13 12 11 11 11 12 12 10 9 8 9 9 9 5 2 1 2 4 7 9 10 9 9 9 10 10 10 8 7 6 6 6 6 6 6 6 6 6 6 6 5 5 5 5 4 4 4 5 5 5 5 5 5 4 4 4 4 4 4 3 3 3 3 3 3 3 3 4 4 4 4 4 4 4 4 5 4 4 4 4 4 4 5 5 5 6 6 6 6 7 7 7 7
12 2 -3 -1 3 11 20 16 9 6 10 13 13 13 12 12 11 10 8 7 8 9 9 7 6 6 5 4 6 8 10 10 9 9 9 9 9 8 7 7 7 7 7 7 7 6 6 6 6 6 6 6 5 5 4 4 5 5 5 5 5 5 4 4 4 4 4 4 4 3 3 3 3 3 3 3 3 4 4 4 4 4 4 4 5 5 5 5 4 4 5 5 5 6 6 7 7 7 7 7 6 6 6
15 3 -3 1 6 13 19 12 6 3 8 14 16 15 13 12 11 9 7 7 8 9 10 10 10 9 5 3 4 7 10 10 10 9 9 9 9 8 7 7 7 7 7 7 7 6 6 6 6 6 6 6 5 5 5 5 5 5 5 5 4 4 4 4 4 4 4 4 4 3 3 3 3 3 3 3 3 3 4 4 4 4 4 4 5 5 5 5 5 5 5 6 6 7 7 7 7 7 7 7 7 7 8
20 7 1 6 10 13 16 9 3 2 9 16 18 17 14 12 10 9 7 7 8 9 10 11 11 9 6 4 5 7 10 11 10 10 9 9 8 8 7 7 7 6 6 6 6 6 6 6 6 6 6 5 5 5 5 5 5 5 5 4 4 4 4 4 4 4 4 4 4 3 3 3 3 3 3 3 3 3 3 4 4 4 4 4 5 5 5 5 5 6 6 7 7 8 8 8 8 7 7 8 8 9 9
23 15 -0 4 9 13 15 7 -0 -2 7 17 20 19 14 12 10 9 8 7 8 10 11 10 8 5 6 5 6 7 10 10 10 10 9 9 8 8 7 7 6 6 6 6 6 6 6 6 6 6 6 5 5 5 5 5 5 5 4 4 4 4 4 4 4 4 4 4 4 3 3 3 3 3 3 3 3 3 3 4 4 4 4 4 5 5 5 6 6 7 7 8 8 8 8 8 8 8 8 8 9 9 10
16 20 6 -1 3 10 14 6 -3 -6 2 14 20 20 15 12 10 9 8 7 8 9 11 7 4 2 4 5 6 7 9 9 9 9 9 9 8 8 7 6 6 6 6 6 6 5 6 5 5 5 5 5 5 5 5 5 5 5 4 4 4 4 4 4 4 4 4 4 4 4 3 3 3 3 3 3 3 4 4 4 4 4 4 4 5 5 6 7 7 8 8 9 9 9 8 8 8 8 9 9 9 9 10
5 18 26 9 1 1 9 5 -3 -8 -4 7 15 18 17 13 10 9 8 7 8 9 10 7 4 2 3 5 6 7 8 8 8 8 9 9 8 8 7 6 6 5 5 5 5 6 6 5 5 5 5 5 5 5 5 5 5 5 4 4 4 4 4 4 4 4 4 4 4 4 3 3 3 3 3 4 4 4 4 4 4 4 4 5 5 6 7 7 8 9 9 9 9 8 8 8 8 9 9 9 9 9 9
1 12 32 25 8 -5 -1 3 -0 -5 -7 -1 7 14 17 14 11 9 8 8 8 8 9 8 6 5 5 6 7 7 7 7 7 8 9 9 8 7 7 6 5 5 5 5 5 6 6 6 6 5 5 5 5 5 5 5 5 5 4 4 4 4 4 4 4 4 4 4 4 4 4 4 4 3 4 4 4 4 4 4 4 5 5 5 6 7 7 8 9 9 9 8 8 8 8 9 9 9 9 9 8 8 7
4 10 27 35 21 1 -6 1 2 -0 -4 -4 1 7 14 14 13 11 9 8 7 7 7 7 7 6 6 6 6 6 6 6 7 8 9 9 8 7 6 6 5 5 5 5 6 6 6 6 6 6 6 5 5 5 5 5 5 4 4 4 4 4 3 4 4 4 4 4 4 4 4 4 4 4 4 4 4 5 5 5 5 5 5 6 7 8 8 9 9 9 8 8 8 8 9 9 9 8 8 7 7 6 5
7 12 23 37 32 16 1 2 2 1 2 -1 -1 2 9 13 13 12 10 8 7 7 7 7 6 6 5 5 5 5 6 7 8 8 9 8 8 7 6 6 5 5 5 6 6 6 6 6 6 6 6 5 5 5 5 5 5 4 4 4 4 4 4 4 4 4 4 4 4 4 4 4 4 4 5 5 5 5 5 5 5 6 6 7 8 9 9 9 9 9 8 9 9 9 9 8 8 7 7 6 5 5 4
10 14 23 36 36 26 9 5 2 1 3 1 -0 0 5 10 13 13 12 9 7 6 7 7 7 6 5 4 4 5 6 6 7 8 9 8 7 7 6 6 5 5 5 6 6 6 6 6 6 6 6 6 5 5 5 5 5 4 4 4 4 4 4 4 4 4 4 4 4 4 4 5 5 5 5 5 5 5 5 5 6 7 8 9 9 10 10 9 9 9 9 9 9 8 8 7 7 6 5 4 4 4 3
12 17 24 33 33 24 7 3 1 1 2 3 2 1 3 8 12 13 13 10 8 6 6 8 8 7 6 5 4 4 5 5 5 7 8 8 7 7 6 6 5 5 5 6 6 6 6 6 6 6 6 6 5 5 5 5 4 4 4 4 4 4 4 4 4 4 4 4 4 5 5 5 5 5 6 6 6 6 6 6 7 8 9 10 10 10 9 9 9 9 9 8 8 7 7 6 5 4 4 3 3 3 2
13 19 25 30 26 17 4 1 -2 -3 -2 2 3 3 3 6 10 13 14 12 9 7 6 7 8 8 8 6 5 5 6 5 6 7 8 8 7 7 6 6 6 5 5 5 6 6 6 6 6 6 6 6 5 5 5 4 4 4 4 4 4 4 4 4 4 4 4 5 5 5 5 6 6 6 6 6 6 7 7 8 9 9 10 10 9 9 9 9 9 8 8 8 7 6 5 5 4 3 3 3 2 2 2
17 22 26 27 21 11 2 2 -1 -4 -6 -1 3 4 3 5 8 12 14 13 10 8 6 7 7 8 8 8 7 7 7 7 7 8 8 8 7 7 6 6 6 6 6 5 5 6 6 6 6 6 5 5 5 5 4 4 4 4 4 4 4 4 4 5 5 5 5 5 5 5 6 6 6 6 7 7 7 7 8 9 10 10 10 9 9 9 8 9 8 8 7 7 6 5 4 4 3 3 2 2 2 1 1
21 24 27 24 17 8 1 2 2 -1 -6 -4 0 4 5 6 8 11 13 13 11 9 7 7 7 7 7 8 8 8 7 7 7 8 8 8 8 8 7 6 6 6 6 6 5 5 5 5 5 5 5 5 5 4 4 4 4 4 4 4 4 5 5 5 5 5 5 5 6 6 6 6 6 7 7 7 7 8 9 10 10 10 10 9 9 9 9 8 8 7 6 5 4 4 3 3 2 2 2 1 1 1 0
24 25 27 22 15 7 1 1 2 3 -0 -4 -2 3 7 7 8 10 12 13 12 10 8 8 8 7 6 6 7 7 7 7 8 8 8 7 8 8 9 7 6 6 5 6 6 5 5 5 5 5 5 4 4 4 4 4 4 5 5 5 5 5 5 5 6 6 6 6 6 6 6 6 7 7 7 8 8 9 10 10 10 10 9 9 9 9 9 8 7 6 5 4 4 3 3 2 2 1 1 1 0 0 0
24 25 26 21 14 6 -0 -1 1 4 5 -0 -1 2 7 9 10 10 11 13 12 11 9 9 9 8 6 6 6 6 7 7 7 7 8 9 8 7 7 7 7 6 6 5 6 6 5 5 5 5 5 4 4 4 5 5 5 5 5 5 5 5 6 6 6 6 6 6 6 6 6 6 7 7 8 8 9 10 10 10 10 10 9 9 9 8 8 7 6 5 4 3 3 2 2 1 1 0 0 0 0 0 0
22 24 26 20 13 5 -1 -2 -1 2 6 4 2 3 8 11 11 10 10 12 13 12 10 9 9 9 9 7 6 6 7 7 7 7 7 9 9 8 5 5 6 6 6 6 6 6 5 5 5 4 4 4 4 4 5 5 5 5 5 5 5 6 6 6 6 6 6 6 6 6 6 7 7 8 9 9 10 10 10 10 10 10 9 9 8 7 6 6 5 4 3 3 2 1 1 0 0 0 -0 0 0 1 1
20 22 26 20 13 5 -2 -4 -3 -0 4 6 6 6 9 11 11 9 9 11 13 14 13 11 9 9 10 9 8 7 7 7 7 8 8 8 8 9 7 5 5 6 6 6 6 6 6 6 5 5 4 4 4 5 5 5 5 5 5 5 6 6 6 6 6 6 6 6 6 7 7 7 8 9 10 10 10 10 10 10 9 9 8 8 7 6 6 5 4 4 3 2 1 0 -0 -0 -0 0 0 1 1 2 3
17 19 24 21 14 5 -2 -6 -5 -2 3 5 6 7 9 10 10 9 9 10 12 14 14 13 11 10 9 9 9 8 7 7 8 9 10 8 7 7 8 7 6 6 5 6 6 7 7 6 6 6 6 5 5 5 5 5 5 5 5 6 6 6 6 6 6 6 7 7 7 7 8 8 9 10 10 10 10 10 10 9 9 8 7 7 6 6 5 4 4 3 2 1 0 -0 -0 -0 0 1 2 2 3 4 6
15 17 21 21 16 7 -2 -7 -6 -2 2 3 4 6 7 8 9 9 9 10 12 13 15 15 14 12 9 9 9 8 7 8 8 9 10 10 7 5 5 6 6 6 6 6 6 6 6 5 5 6 6 6 5 5 5 5 6 6 6 6 6 6 6 6 6 7 7 7 8 8 9 10 10 10 10 10 10 10 9 9 8 7 7 6 6 5 4 3 2 1 0 -0 -0 -0 0 1 2 3 4 5 6 7 8
15 16 19 21 18 10 -1 -6 -5 -1 2 2 2 3 4 6 7 8 9 10 12 13 15 16 15 14 12 9 8 7 7 8 9 9 9 10 10 7 4 4 5 6 6 7 6 5 4 5 5 5 5 5 6 6 6 7 7 7 7 6 6 6 6 6 7 7 8 8 8 9 10 10 10 10 10 10 10 9 9 8 7 7 6 5 4 3 2 1 0 -0 -0 -0 0 1 2 3 4 5 6 7 9 10 11
16 16 19 21 18 12 1 -3 -2 0 2 0 -1 -1 1 3 5 6 8 9 11 13 16 17 17 16 13 9 7 7 7 8 8 9 9 9 10 10 7 5 5 5 4 6 6 6 5 5 5 6 6 6 6 6 6 7 7 7 6 6 6 6 6 7 7 8 8 9 9 10 11 11 10 10 9 9 9 9 8 7 6 5 4 3 2 1 0 -0 -0 -0 0 1 2 2 4 5 6 7 8 9 10 11 11
16 17 19 20 18 13 5 1 -0 0 1 -1 -2 -3 -1 2 4 6 7 9 11 13 16 18 18 16 14 10 7 6 6 7 8 9 9 8 7 8 9 8 7 5 4 3 3 4 7 6 5 4 4 6 7 6 5 6 6 6 6 6 6 6 6 7 8 8 9 10 11 11 11 10 10 9 9 9 9 8 7 6 5 4 2 1 0 -0 -1 -0 0 0 1 2 3 4 5 6 8 9 9 10 10 10 10
15 17 19 20 19 14 7 3 -0 -1 -1 -1 -2 -3 -3 -0 2 4 6 8 10 13 16 19 19 17 12 10 7 5 5 6 6 7 9 8 8 7 7 8 7 7 7 6 6 6 5 6 6 5 3 4 7 8 6 5 5 6 6 5 5 6 7 8 9 10 11 12 12 11 10 9 9 9 9 9 8 7 6 4 3 1 0 -0 -0 -0 -0 -0 0 1 2 3 4 5 7 8 8 9 9 9 9 9 8
14 16 18 20 19 16 10 4 -1 -3 -2 0 -0 -2 -5 -2 0 2 4 7 10 13 16 19 20 18 12 9 7 6 6 7 6 6 6 8 9 8 7 7 6 6 6 6 6 6 4 5 5 6 5 4 4 6 8 7 6 5 5 5 6 7 8 9 10 11 12 12 11 10 9 8 9 9 9 8 7 5 4 2 1 0 -0 -0 -0 -0 -0 0 1 2 3 4 5 7 7 8 8 8 8 8 7 7 6
14 15 17 19 20 18 13 6 -0 -4 -3 1 1 -1 -4 -3 -1 2 3 6 9 12 15 18 19 17 13 9 7 6 6 6 7 7 6 7 7 8 8 7 6 6 6 6 6 6 6 5 5 5 6 5 3 2 5 7 7 6 5 5 6 8 10 11 11 11 12 11 10 9 8 8 8 8 8 6 5 3 1 1 0 -0 -0 -0 -0 -0 -0 1 1 3 4 5 6 7 8 8 8 8 8 7 7 6 6
13 14 16 18 20 20 17 10 3 -2 -4 1 2 1 -3 -2 0 2 3 5 8 11 14 17 18 17 14 10 8 7 6 6 7 8 9 8 7 7 7 7 7 7 7 6 6 6 6 6 6 6 6 6 5 4 4 4 6 7 7 7 8 9 11 11 12 12 11 10 9 8 7 7 7 7 6 4 2 1 0 0 -0 -0 -1 -1 -1 -0 0 2 3 4 6 7 7 8 8 8 8 8 8 8 7 7 7
Height
3152 3152 3152 3152 3152 3152 3152 3151 3151 3151 3150 3150 3150 3150 3150 3149 3149 3149 3149 3149 3149 3149 3149 3150 3150 3150 3150 3150 3150 3150 3151 3151 3151 3152 3152 3152 3152 3152 3152 3152 3152 3153 3152 3152 3152 3152 3152 3153 3153 3153 3153 3153 3152 3152 3152 3152 3152 3152 3151 3151 3151 3151 3151 3151 3151 3151 3150 3150 3150 3150 3150 3150 3150 3150 3149 3149 3149 3149 3149 3149 3149 3149 3149 3149 3149 3149 3149 3149 3149 3149 3149 3149 3148 3148 3148 3148 3148 3148 3148 3149 3149 3149 3149
3151 3151 3151 3151 3151 3151 3151 3151 3150 3150 3150 3149 3149 3149 3149 3149 3149 3149 3149 3149 3149 3149 3149 3149 3149 3150 3150 3150 3150 3150 3151 3151 3151 3151 3151 3151 3152 3152 3152 3152 3152 3152 3152 3152 3152 3152 3152 3152 3152 3152 3152 3152 3152 3152 3152 3151 3151 3151 3151 3151 3151 3151 3151 3150 3150 3150 3150 3150 3150 3150 3150 3150 3150 3150 3149 3149 3149 3149 3149 3149 3149 3149 3149 3149 3149 3149 3149 3149 3149 3148 3148 3148 3148 3148 3148 3148 3148 3148 3148 3148 3148 3148 3148
3150 3150 3151 3151 3151 3151 3150 3150 3150 3150 3149 3149 3149 3148 3148 3148 3148 3149 3149 3149 3149 3149 3149 3149 3149 3149 3149 3149 3150 3150 3151 3151 3151 3151 3151 3151 3151 3151 3151 3152 3152 3152 3152 3152 3152 3152 3152 3152 3152 3152 3152 3152 3151 3151 3151 3151 3151 3151 3151 3151 3150 3150 3150 3150 3150 3150 3150 3150 3150 3149 3150 3150 3149 3149 3149 3149 3149 3149 3149 3149 3149 3149 3149 3149 3149 3149 3149 3149 3148 3148 3148 3148 3148 3148 3148 3148 3148 3148 3148 3148 3148 3148 3148
3150 3150 3150 3150 3150 3150 3150 3149 3149 3149 3149 3149 3148 3148 3148 3147 3148 3148 3149 3149 3149 3148 3148 3149 3149 3149 3149 3149 3150 3150 3150 3151 3151 3150 3150 3150 3151 3151 3151 3151 3151 3151 3151 3152 3152 3151 3151 3151 3151 3152 3151 3151 3151 3151 3151 3151 3151 3151 3150 3150 3150 3150 3150 3150 3150 3149 3149 3149 3149 3149 3149 3149 3149 3149 3149 3149 3149 3149 3149 3149 3149 3149 3149 3149 3149 3149 3148 3148 3148 3148 3148 3148 3148 3148 3148 3148 3148 3148 3148 3148 3148 3148 3148
3149 3149 3149 3149 3149 3149 3149 3149 3149 3149 3149 3149 3149 3148 3148 3147 3147 3148 3148 3148 3148 3149 3149 3149 3149 3149 3149 3149 3149 3150 3150 3150 3150 3150 3150 3150 3150 3151 3151 3151 3151 3151 3151 3151 3151 3151 3151 3151 3151 3151 3151 3151 3151 3151 3151 3150 3150 3150 3150 3150 3150 3150 3149 3149 3149 3149 3149 3149 3149 3149 3149 3149 3149 3149 3149 3149 3149 3148 3148 3148 3148 3148 3148 3148 3148 3148 3148 3148 3148 3148 3148 3148 3148 3148 3147 3147 3147 3147 3147 3147 3147 3147 3147
3148 3148 3148 3148 3149 3149 3149 3148 3148 3148 3148 3149 3148 3148 3147 3147 3147 3147 3147 3148 3148 3148 3149 3149 3149 3149 3149 3149 3149 3150 3150 3149 3149 3149 3149 3150 3150 3150 3150 3150 3150 3151 3151 3151 3151 3151 3151 3151 3151 3151 3151 3151 3151 3150 3150 3150 3150 3150 3150 3150 3150 3149 3149 3149 3149 3149 3149 3149 3149 3149 3149 3148 3149 3149 3149 3149 3148 3148 3148 3148 3148 3148 3148 3148 3148 3148 3148 3148 3148 3148 3148 3147 3147 3147 3147 3147 3147 3147 3147 3147 3147 3147 3147
3147 3147 3147 3147 3148 3148 3148 3148 3147 3147 3147 3149 3148 3147 3147 3146 3146 3146 3146 3147 3147 3147 3148 3149 3149 3149 3149 3149 3149 3149 3149 3149 3149 3149 3149 3149 3149 3150 3150 3150 3150 3150 3150 3150 3150 3151 3151 3150 3150 3150 3150 3150 3150 3150 3150 3150 3150 3150 3150 3149 3149 3149 3149 3149 3149 3149 3149 3149 3149 3148 3148 3148 3148 3148 3148 3148 3148 3148 3148 3147 3147 3147 3148 3148 3148 3148 3148 3148 3147 3147 3147 3147 3147 3147 3147 3147 3147 3147 3147 3146 3146 3146 3146
3146 3146 3146 3146 3146 3147 3147 3147 3147 3147 3147 3148 3147 3146 3146 3146 3146 3146 3146 3146 3146 3146 3147 3148 3148 3149 3149 3149 3149 3149 3149 3148 3148 3148 3149 3149 3149 3149 3149 3149 3149 3150 3150 3150 3150 3150 3150 3150 3150 3150 3150 3150 3150 3150 3150 3150 3149 3149 3149 3149 3149 3149 3149 3149 3149 3149 3149 3148 3148 3148 3148 3148 3148 3148 3148 3148 3148 3147 3147 3147 3147 3147 3147 3147 3147 3147 3147 3147 3147 3147 3147 3147 3147 3146 3146 3146 3146 3146 3146 3146 3146 3146 3146
3145 3145 3145 3145 3145 3146 3146 3146 3146 3146 3146 3146 3146 3146 3145 3145 3145 3145 3145 3145 3145 3146 3147 3147 3148 3149 3148 3148 3149 3149 3148 3148 3148 3148 3149 3149 3149 3149 3149 3149 3149 3149 3149 3150 3150 3150 3150 3150 3150 3150 3149 3149 3150 3150 3149 3149 3149 3149 3149 3149 3149 3149 3149 3149 3149 3149 3148 3148 3148 3148 3148 3147 3147 3147 3147 3147 3147 3147 3147 3147 3147 3146 3146 3146 3146 3146 3147 3147 3146 3146 3146 3146 3146 3146 3146 3146 3146 3146 3146 3146 3146 3146 3145
3144 3144 3144 3144 3144 3144 3145 3145 3145 3146 3146 3145 3145 3145 3144 3145 3145 3145 3145 3145 3144 3145 3146 3147 3148 3148 3147 3148 3148 3148 3148 3148 3147 3148 3148 3148 3149 3149 3149 3149 3149 3149 3149 3149 3149 3149 3149 3149 3149 3149 3149 3149 3149 3149 3149 3149 3149 3149 3149 3149 3149 3149 3149 3149 3148 3148 3148 3148 3148 3148 3147 3147 3147 3147 3147 3147 3147 3147 3147 3146 3146 3146 3146 3146 3146 3146 3146 3146 3146 3146 3146 3146 3146 3146 3145 3145 3145 3145 3145 3145 3145 3145 3145
3143 3143 3143 3143 3143 3144 3144 3144 3144 3144 3145 3145 3144 3144 3144 3145 3146 3145 3144 3144 3144 3144 3145 3146 3147 3147 3147 3147 3148 3148 3148 3148 3147 3147 3148 3148 3148 3148 3148 3148 3149 3149 3149 3149 3149 3149 3149 3149 3149 3149 3149 3149 3149 3149 3149 3149 3149 3149 3149 3149 3148 3148 3148 3148 3148 3148 3148 3148 3147 3147 3147 3147 3147 3147 3146 3146 3146 3146 3146 3146 3146 3146 3146 3146 3145 3145 3145 3145 3145 3145 3145 3145 3145 3145 3145 3145 3145 3145 3145 3145 3145 3145 3144
3142 3142 3142 3142 3142 3142 3142 3143 3143 3143 3144 3144 3144 3144 3144 3145 3145 3145 3144 3144 3144 3144 3144 3145 3146 3147 3147 3147 3147 3148 3147 3147 3147 3147 3147 3148 3148 3148 3148 3148 3148 3148 3148 3149 3149 3149 3149 3149 3149 3149 3149 3149 3149 3149 3149 3149 3149 3149 3149 3148 3148 3148 3148 3148 3148 3148 3147 3147 3147 3147 3147 3146 3146 3146 3146 3146 3146 3146 3146 3146 3146 3145 3145 3145 3145 3145 3145 3145 3145 3145 3145 3145 3145 3145 3145 3144 3144 3144 3144 3144 3144 3144 3144
3141 3141 3141 3141 3141 3142 3142 3142 3142 3142 3142 3143 3143 3143 3143 3144 3144 3144 3143 3143 3143 3143 3144 3145 3146 3146 3146 3147 3147 3147 3147 3147 3147 3147 3147 3147 3147 3148 3148 3148 3148 3148 3148 3148 3148 3148 3149 3149 3148 3148 3148 3149 3149 3149 3149 3149 3149 3149 3148 3148 3148 3148 3148 3147 3147 3147 3147 3147 3147 3147 3146 3146 3146 3146 3146 3145 3145 3145 3145 3145 3145 3145 3145 3145 3145 3145 3145 3145 3144 3144 3144 3144 3144 3144 3144 3144 3144 3144 3144 3144 3144 3144 3144
3140 3140 3140 3140 3140 3141 3141 3141 3141 3141 3141 3141 3142 3142 3143 3142 3142 3142 3142 3143 3143 3143 3143 3145 3146 3145 3145 3146 3147 3147 3147 3147 3147 3147 3147 3147 3147 3147 3147 3147 3147 3147 3147 3148 3148 3148 3148 3148 3148 3148 3148 3148 3148 3148 3148 3148 3148 3148 3148 3148 3147 3147 3147 3147 3147 3147 3147 3146 3146 3146 3146 3146 3145 3145 3145 3145 3145 3145 3145 3145 3145 3145 3145 3144 3144 3144 3144 3144 3144 3144 3144 3144 3144 3144 3144 3144 3144 3143 3143 3143 3143 3143 3143
3139 3139 3139 3139 3139 3140 3140 3140 3140 3140 3140 3140 3141 3141 3142 3142 3141 3141 3141 3142 3142 3142 3143 3144 3145 3145 3145 3145 3146 3146 3146 3146 3146 3146 3147 3147 3147 3147 3147 3147 3147 3147 3147 3147 3147 3148 3148 3148 3148 3148 3148 3148 3148 3148 3148 3148 3148 3148 3148 3147 3147 3147 3147 3147 3146 3146 3146 3146 3146 3146 3145 3145 3145 3145 3145 3145 3144 3144 3144 3144 3144 3144 3144 3144 3144 3144 3144 3144 3144 3144 3144 3144 3143 3143 3143 3143 3143 3143 3143 3142 3142 3142 3142
3138 3138 3138 3139 3139 3139 3139 3139 3139 3139 3139 3139 3140 3140 3141 3141 3141 3141 3141 3141 3141 3142 3142 3142 3144 3144 3144 3145 3145 3146 3146 3146 3146 3146 3146 3146 3147 3147 3147 3147 3147 3147 3147 3147 3147 3147 3147 3147 3147 3147 3147 3147 3147 3147 3148 3148 3147 3147 3147 3147 3147 3146 3146 3146 3146 3146 3146 3145 3145 3145 3145 3145 3145 3144 3144 3144 3144 3144 3144 3144 3144 3144 3144 3144 3144 3144 3143 3143 3143 3143 3143 3143 3143 3143 3143 3142 3142 3142 3142 3142 3141 3141 3141
3136 3137 3137 3137 3138 3138 3138 3138 3139 3139 3139 3139 3139 3139 3139 3140 3140 3140 3140 3140 3140 3140 3141 3141 3142 3142 3143 3144 3144 3145 3145 3145 3145 3145 3146 3146 3146 3146 3146 3146 3146 3146 3146 3146 3146 3146 3147 3147 3147 3147 3147 3147 3147 3147 3147 3147 3147 3147 3147 3146 3146 3146 3146 3146 3145 3145 3145 3145 3145 3144 3144 3144 3144 3144 3144 3144 3144 3144 3143 3143 3143 3143 3143 3143 3143 3143 3143 3143 3143 3142 3142 3142 3142 3142 3142 3142 3141 3141 3141 3141 3140 3140 3140
3135 3136 3136 3136 3137 3137 3137 3137 3138 3138 3138 3138 3137 3137 3138 3139 3139 3139 3139 3139 3139 3139 3140 3140 3141 3141 3141 3142 3144 3144 3145 3145 3145 3145 3145 3145 3145 3146 3145 3145 3145 3146 3146 3146 3146 3146 3146 3146 3146 3146 3146 3146 3146 3146 3146 3146 3146 3146 3146 3146 3146 3145 3145 3145 3145 3145 3145 3144 3144 3144 3144 3144 3144 3144 3143 3143 3143 3143 3143 3143 3143 3143 3143 3142 3142 3142 3142 3142 3142 3142 3142 3141 3141 3141 3141 3141 3140 3140 3140 3140 3139 3139 3139
3134 3134 3134 3135 3135 3136 3136 3136 3136 3136 3137 3137 3136 3136 3137 3137 3138 3138 3138 3138 3138 3139 3139 3139 3139 3139 3140 3141 3142 3143 3144 3144 3144 3144 3144 3144 3145 3145 3145 3145 3145 3145 3145 3145 3145 3145 3145 3145 3146 3146 3146 3146 3146 3146 3146 3146 3146 3146 3145 3145 3145 3145 3144 3144 3144 3144 3144 3144 3144 3144 3143 3143 3143 3143 3143 3143 3143 3142 3142 3142 3142 3142 3142 3142 3142 3142 3141 3141 3141 3141 3141 3141 3140 3140 3140 3140 3139 3139 3139 3139 3139 3138 3138
3133 3133 3133 3134 3134 3134 3135 3135 3135 3135 3135 3135 3135 3135 3136 3136 3137 3137 3137 3137 3137 3138 3138 3138 3139 3139 3139 3140 3141 3142 3143 3143 3143 3143 3143 3144 3144 3144 3144 3144 3144 3144 3145 3145 3145 3145 3145 3145 3145 3145 3145 3145 3145 3145 3145 3145 3145 3145 3145 3145 3144 3144 3144 3144 3144 3144 3144 3144 3143 3143 3143 3143 3142 3142 3142 3142 3142 3142 3142 3141 3141 3141 3141 3141 3141 3141 3141 3140 3140 3140 3140 3140 3139 3139 3139 3139 3139 3138 3138 3138 3138 3137 3137
3131 3132 3132 3133 3133 3133 3134 3134 3134 3134 3134 3134 3134 3134 3135 3136 3136 3137 3137 3137 3136 3137 3137 3137 3138 3138 3139 3139 3140 3141 3141 3142 3142 3142 3142 3143 3143 3143 3143 3143 3144 3144 3144 3144 3144 3144 3144 3144 3144 3144 3144 3144 3144 3144 3145 3145 3145 3144 3144 3144 3144 3144 3144 3143 3143 3143 3143 3143 3143 3142 3142 3142 3142 3142 3141 3141 3141 3141 3141 3141 3141 3140 3140 3140 3140 3140 3140 3140 3139 3139 3139 3139 3139 3139 3138 3138 3138 3137 3137 3137 3136 3136 3136
3130 3130 3131 3131 3132 3132 3132 3133 3133 3133 3133 3134 3133 3133 3134 3134 3135 3136 3136 3135 3135 3135 3136 3136 3137 3137 3138 3138 3139 3139 3140 3140 3141 3141 3141 3142 3142 3142 3142 3143 3143 3143 3143 3143 3144 3144 3144 3144 3144 3144 3144 3144 3144 3144 3144 3144 3144 3144 3144 3144 3144 3143 3143 3143 3143 3143 3142 3142 3142 3142 3142 3141 3141 3141 3141 3141 3140 3140 3140 3140 3140 3140 3140 3139 3139 3139 3139 3139 3139 3139 3139 3138 3138 3138 3137 3137 3137 3136 3136 3136 3135 3135 3135
3128 3129 3129 3130 3130 3131 3131 3131 3131 3132 3132 3132 3132 3132 3133 3133 3134 3136 3136 3135 3134 3134 3135 3135 3136 3136 3137 3137 3138 3138 3139 3139 3139 3140 3140 3140 3141 3141 3141 3142 3142 3142 3142 3143 3143 3143 3143 3143 3143 3143 3144 3144 3144 3144 3144 3144 3144 3144 3143 3143 3143 3143 3142 3142 3142 3142 3142 3141 3141 3141 3141 3141 3140 3140 3140 3140 3140 3140 3140 3139 3139 3139 3139 3139 3139 3139 3138 3138 3138 3138 3138 3137 3137 3137 3136 3136 3136 3135 3135 3135 3134 3134 3134
3127 3127 3128 3128 3129 3129 3129 3129 3130 3130 3131 3131 3131 3131 3132 3133 3134 3134 3136 3135 3134 3133 3133 3134 3134 3135 3135 3136 3136 3137 3137 3138 3138 3139 3139 3139 3139 3140 3140 3141 3141 3141 3142 3142 3142 3142 3143 3143 3143 3143 3143 3143 3143 3143 3143 3143 3143 3143 3143 3143 3142 3142 3142 3142 3141 3141 3141 3141 3140 3140 3140 3140 3140 3139 3139 3139 3139 3139 3139 3139 3139 3138 3138 3138 3138 3138 3138 3137 3137 3137 3137 3136 3136 3136 3135 3135 3135 3134 3134 3134 3134 3133 3133
3125 3126 3126 3127 3127 3128 3128 3128 3129 3129 3129 3130 3130 3130 3131 3131 3132 3133 3134 3134 3133 3132 3132 3133 3133 3134 3134 3134 3135 3135 3136 3136 3137 3137 3138 3138 3139 3139 3139 3140 3140 3141 3141 3141 3141 3142 3142 3142 3142 3142 3142 3142 3142 3142 3142 3142 3142 3142 3142 3142 3142 3141 3141 3141 3141 3140 3140 3140 3140 3139 3139 3139 3139 3138 3138 3138 3139 3138 3138 3138 3138 3137 3137 3137 3137 3137 3137 3137 3136 3136 3136 3135 3135 3135 3135 3134 3134 3134 3133 3133 3133 3132 3132
3124 3124 3125 3125 3126 3126 3127 3127 3127 3127 3128 3128 3129 3129 3129 3129 3130 3131 3132 3132 3132 3131 3131 3131 3132 3132 3133 3133 3134 3134 3135 3135 3135 3136 3136 3137 3138 3138 3139 3139 3139 3140 3140 3140 3141 3141 3141 3141 3141 3142 3142 3142 3142 3142 3142 3141 3141 3141 3141 3141 3141 3141 3140 3140 3140 3140 3139 3139 3139 3139 3139 3138 3138 3138 3137 3138 3138 3137 3137 3137 3137 3137 3137 3136 3136 3136 3136 3136 3135 3135 3135 3135 3134 3134 3134 3134 3133 3133 3132 3132 3131 3131 3130
3122 3123 3123 3124 3125 3125 3125 3125 3125 3126 3126 3127 3127 3127 3128 3128 3128 3129 3129 3131 3131 3130 3129 3130 3130 3131 3131 3132 3133 3133 3133 3134 3134 3135 3135 3136 3136 3137 3138 3139 3139 3139 3139 3140 3140 3140 3140 3141 3141 3141 3141 3141 3141 3141 3141 3141 3141 3141 3141 3141 3140 3140 3140 3139 3139 3139 3139 3139 3138 3138 3138 3138 3137 3137 3137 3137 3136 3136 3136 3136 3136 3136 3136 3135 3135 3135 3135 3135 3134 3134 3134 3134 3134 3133 3133 3132 3132 3131 3131 3130 3130 3129 3129
3120 3121 3122 3123 3124 3124 3124 3123 3124 3124 3125 3125 3125 3126 3126 3126 3127 3127 3127 3128 3128 3128 3128 3129 3129 3129 3130 3130 3131 3132 3132 3132 3133 3133 3134 3134 3135 3136 3137 3138 3138 3139 3139 3139 3139 3139 3140 3140 3140 3140 3140 3140 3140 3140 3140 3140 3140 3140 3140 3140 3140 3139 3139 3139 3139 3138 3138 3138 3137 3137 3137 3137 3136 3136 3136 3136 3135 3135 3135 3135 3135 3135 3134 3134 3134 3134 3134 3134 3134 3134 3133 3134 3133 3132 3132 3131 3131 3130 3129 3129 3129 3128 3127
3119 3119 3120 3122 3122 3122 3122 3122 3122 3123 3123 3124 3124 3124 3124 3125 3125 3125 3125 3125 3126 3127 3127 3127 3127 3128 3129 3129 3130 3130 3130 3131 3131 3132 3133 3133 3134 3135 3136 3136 3137 3138 3138 3138 3139 3139 3139 3139 3139 3139 3139 3139 3139 3139 3139 3139 3139 3139 3139 3139 3139 3139 3138 3138 3138 3138 3137 3137 3137 3136 3136 3136 3135 3135 3135 3135 3134 3134 3134 3134 3134 3134 3134 3134 3134 3133 3133 3133 3133 3133 3132 3132 3131 3131 3130 3130 3130 3129 3128 3128 3127 3127 3126
3117 3118 3119 3120 3120 3120 3120 3120 3121 3121 3122 3122 3122 3123 3123 3123 3124 3124 3124 3124 3124 3125 3126 3126 3126 3127 3127 3128 3128 3129 3129 3129 3130 3131 3132 3132 3133 3134 3134 3135 3136 3136 3137 3137 3138 3138 3138 3138 3139 3139 3139 3139 3139 3139 3139 3139 3139 3139 3138 3138 3138 3138 3138 3137 3137 3137 3136 3136 3136 3135 3135 3135 3134 3134 3134 3134 3134 3134 3133 3133 3133 3133 3133 3133 3132 3132 3132 3132 3132 3131 3131 3130 3130 3130 3129 3129 3129 3128 3128 3128 3127 3126 3125
3116 3116 3117 3118 3119 3118 3118 3119 3119 3120 3120 3120 3121 3121 3121 3122 3122 3122 3122 3123 3123 3124 3124 3125 3125 3125 3126 3126 3127 3127 3128 3129 3129 3130 3130 3131 3132 3133 3133 3134 3135 3135 3136 3136 3137 3137 3137 3137 3138 3138 3138 3138 3138 3138 3138 3138 3138 3138 3138 3137 3137 3137 3137 3137 3136 3136 3136 3135 3135 3134 3134 3134 3134 3134 3133 3133 3133 3133 3133 3132 3132 3132 3132 3131 3131 3131 3131 3130 3131 3130 3130 3130 3129 3129 3128 3127 3127 3126 3126 3125 3125 3125 3124
3114 3115 3116 3117 3117 3116 3117 3117 3118 3118 3118 3119 3119 3119 3120 3120 3120 3120 3121 3121 3122 3122 3123 3123 3124 3124 3124 3125 3126 3126 3127 3127 3128 3129 3129 3130 3131 3132 3132 3133 3134 3134 3135 3135 3136 3136 3136 3136 3137 3137 3137 3137 3137 3137 3137 3137 3137 3137 3137 3137 3136 3136 3136 3136 3135 3135 3135 3134 3134 3134 3133 3133 3133 3133 3132 3132 3132 3132 3132 3132 3131 3131 3131 3131 3130 3130 3130 3129 3129 3129 3129 3128 3128 3128 3127 3126 3126 3125 3124 3124 3123 3122 3121
3113 3114 3115 3115 3115 3114 3115 3115 3116 3117 3116 3117 3117 3117 3118 3119 3119 3119 3119 3120 3120 3121 3122 3122 3122 3123 3123 3124 3124 3125 3126 3126 3127 3128 3129 3129 3130 3131 3131 3132 3133 3133 3134 3134 3135 3135 3135 3135 3136 3136 3136 3136 3136 3136 3136 3136 3136 3136 3136 3136 3135 3135 3135 3135 3134 3134 3134 3133 3133 3133 3132 3132 3132 3132 3131 3131 3131 3131 3131 3131 3130 3130 3130 3130 3129 3129 3129 3129 3128 3128 3127 3127 3126 3126 3125 3125 3124 3124 3123 3122 3122 3121 3120
3111 3112 3113 3114 3113 3113 3113 3114 3114 3115 3115 3115 3115 3115 3116 3117 3117 3117 3118 3118 3119 3119 3120 3120 3121 3121 3122 3122 3123 3124 3124 3125 3126 3127 3128 3129 3129 3130 3130 3131 3132 3132 3133 3133 3134 3134 3134 3134 3135 3135 3135 3135 3135 3135 3135 3135 3135 3135 3135 3135 3134 3134 3134 3134 3134 3133 3133 3132 3132 3132 3131 3131 3131 3131 3130 3130 3130 3130 3130 3130 3129 3129 3129 3129 3129 3128 3128 3127 3127 3126 3126 3125 3125 3124 3124 3123 3123 3122 3122 3121 3120 3119 3119
3110 3111 3112 3112 3112 3111 3111 3112 3113 3113 3113 3113 3114 3114 3115 3115 3115 3116 3116 3116 3117 3118 3119 3119 3119 3120 3121 3121 3122 3122 3123 3124 3125 3126 3127 3127 3128 3129 3129 3130 3131 3131 3132 3132 3133 3133 3133 3134 3134 3134 3134 3134 3134 3134 3134 3134 3134 3134 3134 3134 3134 3133 3133 3133 3133 3132 3132 3131 3131 3131 3131 3130 3130 3130 3130 3129 3129 3129 3129 3129 3129 3129 3128 3128 3128 3127 3127 3126 3126 3125 3125 3124 3124 3123 3122 3122 3121 3120 3120 3119 3119 3118 3117
3109 3110 3110 3110 3110 3109 3110 3110 3111 3111 3111 3111 3112 3113 3113 3114 3114 3114 3114 3115 3116 3116 3117 3117 3118 3119 3120 3121 3121 3121 3122 3123 3124 3124 3125 3126 3127 3128 3128 3129 3129 3130 3130 3131 3131 3132 3132 3133 3133 3133 3133 3133 3133 3133 3133 3133 3133 3133 3133 3133 3133 3132 3132 3132 3131 3131 3131 3130 3130 3130 3130 3129 3129 3129 3129 3129 3129 3129 3128 3128 3128 3128 3127 3127 3127 3126 3126 3125 3125 3124 3124 3123 3122 3122 3121 3120 3120 3119 3118 3118 3117 3116 3115
3108 3109 3109 3109 3108 3108 3108 3109 3109 3110 3110 3110 3110 3111 3111 3112 3112 3112 3113 3113 3114 3115 3115 3116 3116 3117 3119 3120 3120 3120 3120 3121 3123 3123 3124 3125 3126 3126 3127 3128 3128 3129 3129 3130 3130 3131 3131 3131 3132 3132 3132 3132 3132 3132 3132 3132 3132 3132 3132 3132 3131 3131 3131 3131 3130 3130 3130 3130 3129 3129 3129 3129 3129 3128 3128 3128 3128 3128 3127 3127 3127 3127 3126 3126 3126 3125 3125 3124 3124 3123 3123 3122 3121 3120 3120 3119 3118 3118 3117 3116 3115 3114 3114
3107 3106 3106 3106 3106 3107 3107 3108 3108 3108 3109 3109 3109 3109 3110 3110 3110 3111 3111 3112 3113 3114 3114 3115 3115 3116 3117 3118 3118 3119 3119 3120 3121 3122 3123 3124 3124 3125 3125 3126 3127 3127 3128 3128 3129 3129 3130 3130 3130 3131 3131 3131 3131 3131 3131 3131 3131 3131 3131 3131 3130 3130 3130 3129 3129 3129 3129 3129 3129 3129 3128 3128 3128 3128 3127 3127 3127 3126 3126 3126 3126 3125 3125 3125 3124 3124 3124 3123 3123 3122 3121 3121 3120 3119 3119 3118 3117 3116 3115 3114 3114 3113 3112
3106 3105 3104 3105 3105 3106 3106 3107 3107 3107 3107 3107 3108 3108 3108 3109 3109 3109 3110 3111 3111 3112 3113 3114 3114 3114 3115 3116 3117 3118 3118 3119 3120 3120 3121 3122 3123 3124 3124 3124 3125 3126 3126 3127 3128 3128 3129 3129 3129 3129 3130 3130 3130 3130 3130 3130 3130 3130 3130 3129 3129 3129 3129 3128 3128 3128 3128 3128 3128 3128 3127 3127 3127 3127 3126 3126 3126 3125 3125 3125 3124 3124 3124 3124 3123 3123 3122 3122 3121 3121 3120 3119 3119 3118 3117 3116 3116 3115 3114 3113 3113 3112 3111
3104 3104 3104 3104 3104 3105 3105 3105 3105 3105 3105 3106 3106 3106 3107 3107 3108 3108 3109 3109 3110 3111 3111 3112 3112 3113 3114 3114 3115 3116 3117 3118 3118 3119 3120 3121 3121 3122 3123 3123 3124 3124 3125 3126 3126 3127 3127 3128 3128 3128 3129 3129 3129 3129 3129 3129 3129 3129 3129 3128 3128 3128 3127 3127 3127 3127 3127 3127 3127 3127 3127 3126 3126 3126 3125 3125 3124 3124 3124 3124 3123 3123 3123 3122 3122 3121 3121 3121 3120 3119 3119 3118 3117 3117 3116 3115 3114 3114 3113 3112 3111 3110 3110
3102 3103 3103 3103 3103 3103 3104 3104 3104 3104 3104 3104 3105 3105 3105 3106 3106 3107 3107 3108 3108 3109 3110 3111 3111 3112 3113 3113 3114 3115 3115 3116 3117 3117 3119 3119 3120 3120 3121 3122 3122 3123 3124 3124 3125 3125 3126 3126 3127 3127 3127 3128 3128 3128 3128 3128 3128 3127 3127 3127 3127 3126 3126 3126 3126 3126 3126 3126 3126 3126 3126 3125 3125 3124 3124 3124 3124 3123 3123 3123 3122 3122 3121 3121 3121 3120 3120 3119 3119 3118 3117 3117 3116 3115 3114 3114 3113 3112 3111 3110 3110 3109 3108
3100 3100 3101 3101 3101 3101 3102 3102 3102 3103 3103 3103 3104 3104 3104 3104 3105 3105 3106 3106 3107 3108 3109 3109 3110 3111 3111 3112 3113 3114 3114 3115 3115 3116 3117 3118 3118 3119 3119 3120 3121 3122 3123 3123 3124 3124 3125 3125 3126 3126 3126 3126 3127 3127 3127 3126 3126 3126 3126 3125 3125 3125 3125 3125 3125 3125 3125 3125 3125 3125 3125 3124 3124 3124 3123 3123 3122 3122 3122 3122 3121 3121 3120 3120 3120 3119 3119 3118 3117 3117 3116 3115 3114 3114 3113 3112 3111 3111 3110 3109 3109 3108 3107
3098 3098 3098 3099 3099 3099 3099 3100 3101 3101 3101 3102 3102 3103 3103 3104 3104 3104 3105 3105 3105 3106 3107 3108 3109 3109 3110 3111 3111 3112 3113 3114 3114 3115 3115 3116 3117 3118 3118 3119 3120 3121 3121 3122 3123 3124 3124 3124 3124 3125 3125 3125 3125 3125 3125 3125 3125 3124 3124 3124 3124 3124 3124 3124 3124 3124 3124 3124 3124 3124 3124 3124 3123 3123 3122 3122 3121 3121 3121 3120 3120 3120 3119 3119 3119 3118 3118 3117 3116 3115 3114 3114 3113 3112 3111 3111 3110 3109 3109 3108 3107 3106 3105
3096 3096 3096 3096 3097 3098 3098 3098 3099 3099 3099 3100 3101 3102 3102 3103 3103 3103 3104 3104 3104 3104 3105 3106 3107 3108 3109 3109 3110 3111 3111 3112 3113 3113 3114 3115 3115 3116 3117 3118 3119 3119 3120 3121 3122 3122 3123 3123 3124 3124 3124 3124 3124 3124 3124 3124 3124 3123 3123 3123 3123 3123 3123 3123 3123 3123 3123 3123 3123 3123 3123 3123 3122 3122 3121 3121 3120 3120 3120 3119 3119 3119 3119 3118 3118 3117 3116 3116 3115 3114 3113 3113 3112 3111 3110 3109 3109 3108 3107 3106 3106 3105 3104
3094 3094 3094 3094 3095 3096 3096 3096 3097 3098 3098 3099 3100 3101 3101 3101 3102 3102 3102 3102 3103 3103 3104 3104 3105 3106 3107 3107 3109 3109 3110 3111 3111 3112 3113 3113 3114 3115 3115 3116 3117 3118 3119 3120 3120 3121 3122 3122 3122 3123 3123 3123 3123 3123 3123 3123 3122 3122 3122 3122 3122 3122 3122 3122 3122 3122 3122 3122 3122 3122 3122 3121 3121 3121 3120 3120 3120 3119 3119 3119 3118 3118 3117 3117 3116 3116 3115 3114 3114 3113 3112 3111 3110 3109 3109 3108 3107 3107 3106 3105 3104 3104 3103
3091 3092 3092 3093 3094 3094 3094 3095 3095 3096 3097 3098 3099 3099 3100 3100 3101 3101 3101 3101 3102 3102 3102 3103 3104 3105 3105 3106 3107 3108 3109 3109 3110 3111 3111 3112 3113 3113 3114 3115 3116 3117 3118 3119 3119 3120 3120 3121 3121 3121 3122 3122 3122 3121 3121 3121 3121 3121 3121 3121 3121 3121 3121 3121 3121 3121 3121 3121 3121 3121 3120 3120 3120 3119 3119 3119 3119 3119 3118 3118 3117 3117 3116 3115 3115 3114 3114 3113 3112 3111 3110 3110 3109 3108 3108 3107 3106 3105 3104 3104 3103 3102 3101
3089 3089 3090 3091 3092 3092 3092 3093 3094 3095 3096 3097 3097 3098 3099 3099 3099 3100 3100 3100 3100 3101 3101 3102 3103 3103 3104 3105 3106 3107 3108 3108 3109 3110 3110 3111 3111 3112 3113 3114 3115 3115 3116 3117 3118 3119 3119 3119 3120 3120 3120 3120 3120 3120 3120 3120 3120 3120 3120 3120 3120 3120 3120 3120 3120 3120 3120 3120 3120 3119 3119 3119 3119 3119 3119 3118 3118 3117 3117 3117 3116 3115 3115 3114 3114 3113 3112 3112 3111 3110 3109 3109 3108 3107 3106 3105 3105 3104 3103 3102 3101 3100 3099
3086 3087 3088 3089 3090 3090 3090 3091 3092 3094 3094 3095 3096 3096 3097 3098 3098 3099 3099 3099 3099 3099 3100 3100 3101 3102 3103 3104 3105 3106 3106 3107 3108 3109 3109 3109 3110 3111 3112 3113 3114 3114 3115 3116 3117 3117 3118 3118 3119 3119 3119 3119 3119 3119 3119 3119 3119 3119 3119 3119 3119 3119 3119 3119 3119 3119 3119 3119 3119 3118 3118 3118 3118 3118 3117 3117 3117 3116 3116 3115 3115 3114 3114 3113 3112 3112 3111 3110 3109 3109 3108 3107 3106 3106 3105 3104 3103 3102 3101 3101 3100 3099 3098
3084 3084 3085 3087 3088 3088 3089 3089 3091 3092 3093 3094 3095 3095 3096 3096 3097 3097 3097 3098 3098 3098 3099 3099 3100 3101 3102 3103 3104 3104 3105 3106 3107 3107 3108 3108 3109 3110 3111 3111 3112 3113 3114 3115 3115 3116 3117 3117 3117 3118 3118 3118 3118 3118 3118 3118 3118 3118 3118 3118 3119 3119 3119 3119 3118 3118 3118 3118 3117 3117 3117 3117 3117 3116 3116 3116 3115 3115 3114 3114 3114 3113 3113 3112 3111 3110 3109 3109 3108 3107 3106 3106 3105 3104 3103 3103 3102 3101 3100 3099 3098 3097 3096
3081 3082 3083 3084 3085 3086 3087 3088 3089 3090 3091 3093 3093 3094 3094 3094 3095 3095 3096 3096 3097 3097 3097 3098 3099 3100 3100 3101 3102 3103 3104 3105 3105 3106 3106 3107 3108 3109 3109 3110 3111 3112 3113 3114 3114 3115 3115 3116 3116 3116 3116 3116 3116 3116 3116 3116 3117 3117 3117 3117 3117 3118 3117 3117 3117 3117 3117 3116 3116 3116 3116 3116 3115 3115 3115 3114 3114 3114 3114 3113 3113 3112 3111 3111 3110 3109 3108 3107 3107 3106 3105 3104 3104 3103 3102 3101 3100 3099 3098 3097 3096 3095 3094
3079 3080 3081 3083 3084 3085 3085 3086 3088 3089 3089 3090 3091 3092 3093 3093 3094 3094 3094 3095 3095 3096 3096 3097 3098 3098 3099 3100 3101 3102 3103 3104 3104 3104 3105 3106 3107 3108 3108 3109 3110 3111 3112 3112 3113 3114 3114 3114 3114 3115 3115 3115 3115 3115 3115 3115 3116 3116 3116 3116 3116 3116 3116 3116 3116 3116 3115 3115 3115 3115 3115 3114 3114 3114 3114 3113 3113 3113 3112 3112 3111 3111 3110 3109 3109 3108 3107 3106 3105 3104 3104 3103 3102 3101 3100 3099 3099 3098 3097 3096 3094 3094 3092
3078 3078 3079 3081 3082 3083 3084 3085 3086 3087 3088 3089 3089 3090 3091 3092 3092 3093 3093 3094 3094 3095 3095 3096 3096 3097 3098 3099 3099 3101 3102 3102 3102 3103 3104 3105 3106 3107 3107 3108 3109 3110 3110 3111 3112 3112 3113 3113 3113 3114 3114 3114 3114 3114 3114 3114 3114 3115 3115 3115 3115 3115 3115 3115 3115 3115 3114 3114 3114 3114 3114 3113 3113 3113 3113 3112 3112 3111 3111 3111 3110 3109 3109 3108 3108 3107 3106 3105 3104 3104 3103 3102 3101 3100 3099 3098 3097 3096 3095 3094 3093 3092 3090
3075 3076 3077 3079 3080 3081 3082 3083 3084 3085 3086 3087 3088 3089 3089 3090 3090 3091 3092 3092 3093 3094 3094 3094 3095 3096 3096 3097 3098 3099 3100 3100 3101 3102 3102 3103 3104 3105 3106 3107 3108 3109 3109 3110 3111 3111 3111 3112 3112 3112 3113 3113 3113 3113 3113 3113 3114 3114 3114 3114 3114 3114 3114 3114 3114 3114 3114 3113 3113 3113 3112 3112 3112 3112 3111 3111 3111 3110 3110 3109 3109 3108 3108 3107 3106 3106 3105 3104 3103 3102 3101 3100 3099 3098 3097 3096 3095 3094 3094 3092 3091 3090 3089
3074 3074 3075 3077 3078 3079 3080 3081 3083 3084 3084 3085 3086 3087 3088 3089 3089 3089 3090 3091 3091 3092 3093 3093 3094 3094 3095 3096 3097 3098 3099 3099 3100 3100 3101 3102 3104 3104 3105 3105 3106 3107 3108 3109 3109 3110 3110 3110 3111 3111 3111 3111 3112 3112 3112 3112 3112 3113 3113 3113 3113 3113 3113 3113 3113 3113 3112 3112 3112 3112 3111 3111 3111 3110 3110 3110 3109 3109 3109 3108 3107 3107 3106 3106 3105 3104 3104 3103 3102 3101 3100 3099 3098 3097 3096 3095 3094 3093 3092 3090 3089 3088 3087
3072 3072 3073 3074 3075 3077 3078 3079 3080 3081 3082 3083 3084 3085 3086 3087 3088 3088 3089 3089 3090 3090 3091 3092 3092 3093 3094 3095 3096 3097 3097 3098 3099 3100 3101 3101 3102 3103 3104 3104 3105 3106 3107 3108 3108 3108 3108 3109 3110 3110 3110 3110 3110 3111 3111 3111 3111 3111 3112 3112 3112 3112 3112 3112 3112 3112 3111 3111 3111 3110 3110 3110 3109 3109 3109 3109 3108 3108 3107 3107 3106 3105 3105 3104 3104 3103 3102 3101 3100 3099 3099 3098 3096 3095 3094 3093 3092 3091 3090 3089 3087 3086 3084
3069 3070 3071 3072 3073 3074 3076 3077 3078 3079 3080 3081 3083 3084 3085 3085 3086 3087 3087 3088 3089 3089 3090 3090 3091 3092 3093 3094 3094 3095 3096 3097 3098 3098 3099 3100 3101 3102 3102 3103 3104 3105 3106 3106 3106 3106 3106 3108 3109 3109 3109 3109 3109 3110 3110 3110 3110 3110 3110 3110 3110 3111 3111 3111 3111 3111 3110 3110 3109 3109 3109 3109 3108 3108 3108 3108 3107 3107 3106 3105 3105 3104 3104 3103 3102 3102 3101 3100 3099 3098 3097 3096 3095 3094 3093 3091 3090 3089 3088 3086 3085 3084 3082
3067 3068 3069 3070 3071 3072 3074 3074 3076 3077 3079 3079 3081 3082 3083 3084 3085 3085 3086 3087 3087 3088 3089 3089 3090 3090 3091 3092 3093 3094 3095 3095 3096 3097 3098 3099 3100 3100 3101 3102 3103 3104 3104 3104 3104 3105 3106 3107 3108 3108 3107 3108 3109 3109 3109 3109 3109 3109 3109 3109 3109 3109 3110 3110 3109 3109 3109 3109 3109 3108 3108 3107 3107 3107 3107 3106 3106 3105 3105 3104 3104 3103 3102 3102 3101 3100 3099 3098 3097 3096 3095 3094 3093 3092 3090 3089 3088 3087 3086 3084 3083 3081 3080
3065 3066 3067 3068 3069 3070 3071 3073 3074 3075 3077 3078 3079 3080 3081 3083 3083 3084 3085 3085 3086 3087 3087 3088 3089 3089 3090 3090 3091 3092 3093 3094 3095 3095 3097 3098 3099 3099 3100 3101 3102 3102 3103 3103 3104 3104 3105 3106 3106 3106 3106 3107 3107 3107 3108 3108 3108 3108 3108 3108 3108 3109 3109 3109 3108 3108 3108 3108 3107 3107 3107 3106 3106 3106 3106 3105 3105 3104 3104 3103 3102 3102 3101 3100 3099 3098 3097 3096 3095 3094 3093 3092 3090 3089 3088 3087 3086 3085 3083 3082 3080 3079 3077
3064 3064 3065 3066 3067 3069 3070 3071 3072 3074 3075 3076 3077 3079 3080 3081 3082 3083 3084 3084 3085 3085 3086 3087 3087 3088 3089 3089 3090 3091 3092 3093 3093 3094 3095 3096 3097 3098 3099 3100 3100 3101 3101 3102 3103 3104 3104 3104 3104 3105 3105 3106 3106 3106 3106 3107 3107 3106 3106 3107 3107 3107 3107 3107 3107 3107 3107 3106 3106 3106 3105 3105 3105 3105 3104 3104 3104 3103 3102 3102 3101 3100 3099 3098 3097 3096 3095 3094 3093 3091 3090 3089 3088 3087 3086 3085 3084 3082 3081 3079 3078 3076 3075
3062 3063 3064 3064 3065 3067 3068 3069 3071 3072 3074 3074 3075 3077 3078 3079 3080 3081 3082 3083 3084 3084 3085 3085 3086 3087 3087 3088 3089 3089 3090 3091 3092 3093 3094 3095 3096 3097 3098 3098 3099 3099 3100 3101 3101 3102 3103 3103 3104 3104 3104 3105 3105 3105 3105 3106 3105 3105 3105 3105 3106 3106 3106 3106 3106 3106 3105 3105 3105 3105 3104 3104 3104 3104 3103 3103 3102 3102 3101 3100 3099 3098 3097 3096 3095 3094 3093 3092 3090 3089 3088 3087 3086 3084 3083 3082 3081 3080 3079 3077 3075 3074 3072
3060 3061 3062 3063 3064 3065 3066 3068 3069 3071 3072 3073 3074 3075 3077 3078 3079 3080 3081 3082 3083 3083 3084 3084 3085 3086 3086 3087 3088 3088 3089 3090 3091 3092 3093 3094 3095 3096 3096 3097 3098 3098 3099 3100 3100 3101 3101 3102 3102 3103 3103 3104 3104 3105 3105 3105 3104 3104 3104 3104 3104 3105 3105 3105 3104 3104 3104 3104 3104 3104 3103 3103 3103 3102 3102 3102 3101 3100 3099 3098 3097 3096 3095 3094 3093 3092 3091 3089 3088 3087 3086 3085 3084 3082 3081 3080 3079 3077 3076 3074 3073 3071 3070